Easton, MD

9:55 PM EST on February 24, 2017 (GMT -0500)
Easton / Newnam

Weather History for KESN - March, 2013

Change the Weather History Date:

Saturday, March 9, 2013

  Actual Average Record
Temperature  
Mean Temperature 46 °F -  
Max Temperature 58 °F 53 °F 77 °F (1964)
Min Temperature 32 °F 30 °F 13 °F (1960)
Degree Days  
Heating Degree Days 20    
Moisture  
Dew Point 27 °F    
Average Humidity 62    
Maximum Humidity 88    
Minimum Humidity 31    
Precipitation  
Precipitation 0.00 in - - ()
Sea Level Pressure  
Sea Level Pressure 30.30 in    
Wind  
Wind Speed 7 mph (North)    
Max Wind Speed 12 mph    
Max Gust Speed 17 mph    
Visibility 10 miles    
Events      
Averages and records for this station are not official NWS values.
T = Trace of Precipitation, MM = Missing Value Source: NWS Daily Summary

Daily Weather History Graph

Daily Weather History Graph

Search for Another Location

Airport or City:

Trip Planner

Search our weather history database for the weather conditions in past years. The results will help you decide how hot, cold, wet, or windy it might be!

Date:

Astronomy

Mar. 09, 2013 Rise Set
Actual Time 6:24 AM EST 6:05 PM EST
Civil Twilight 5:57 AM EST 6:32 PM EST
Nautical Twilight 5:27 AM EST 7:02 PM EST
Astronomical Twilight 4:56 AM EST 7:34 PM EST
Moon 4:45 AM EST (3/9) 4:05 PM EST (3/9)
Length of Visible Light 12h 34m
Length of Day
11h 41m
Waning Crescent, 5% of the Moon is Illuminated
Mar 9
Waning Crescent
Mar 11
New
Mar 19
First Quarter
Mar 27
Full
Apr 3
Last Quarter

Hourly Weather History & Observations

Time (EST) Temp. Windchill Dew Point Humidity Pressure Visibility Wind Dir Wind Speed Gust Speed Precip Events Conditions
12:16 AM 40.5 °F 34.1 °F 28.0 °F 61% 30.26 in 10.0 mi North 10.4 mph - N/A   Mostly Cloudy
12:36 AM 40.3 °F 34.4 °F 27.5 °F 60% 30.26 in 10.0 mi North 9.2 mph - N/A   Mostly Cloudy
12:56 AM 40.3 °F 33.9 °F 27.3 °F 60% 30.27 in 10.0 mi North 10.4 mph 16.1 mph N/A   Mostly Cloudy
1:16 AM 39.9 °F 33.4 °F 26.8 °F 59% 30.26 in 10.0 mi NNE 10.4 mph - N/A   Mostly Cloudy
1:36 AM 38.8 °F 33.8 °F 26.8 °F 62% 30.27 in 10.0 mi North 6.9 mph - N/A   Scattered Clouds
1:56 AM 38.5 °F 32.1 °F 26.6 °F 62% 30.27 in 10.0 mi North 9.2 mph - N/A   Clear
2:16 AM 38.1 °F 32.3 °F 26.4 °F 63% 30.27 in 10.0 mi North 8.1 mph - N/A   Clear
2:36 AM 37.4 °F 30.8 °F 26.2 °F 64% 30.28 in 10.0 mi North 9.2 mph - N/A   Clear
2:56 AM 37.0 °F 31.0 °F 26.6 °F 66% 30.27 in 10.0 mi North 8.1 mph - N/A   Clear
3:16 AM 37.0 °F 31.6 °F 25.7 °F 64% 30.26 in 10.0 mi North 6.9 mph - N/A   Clear
3:36 AM 36.7 °F 31.2 °F 26.2 °F 66% 30.26 in 10.0 mi North 6.9 mph - N/A   Clear
3:56 AM 36.5 °F 31.0 °F 25.9 °F 65% 30.27 in 10.0 mi North 6.9 mph - N/A   Clear
4:16 AM 35.8 °F 29.4 °F 25.7 °F 67% 30.28 in 10.0 mi NNW 8.1 mph - N/A   Clear
4:36 AM 36.1 °F 29.9 °F 25.5 °F 65% 30.28 in 10.0 mi North 8.1 mph - N/A   Clear
4:56 AM 35.2 °F 29.5 °F 26.2 °F 70% 30.29 in 10.0 mi North 6.9 mph - N/A   Clear
5:16 AM 35.8 °F 29.4 °F 25.9 °F 67% 30.29 in 10.0 mi North 8.1 mph - N/A   Clear
5:36 AM 35.6 °F 29.9 °F 25.5 °F 67% 30.29 in 10.0 mi North 6.9 mph - N/A   Clear
5:53 AM 35.6 °F 29.9 °F 24.8 °F 65% 30.30 in 10.0 mi NNW 6.9 mph - N/A   Clear
5:56 AM 35.4 °F 30.5 °F 25.5 °F 67% 30.30 in 10.0 mi North 5.8 mph - N/A   Clear
6:16 AM 35.1 °F 29.3 °F 25.7 °F 69% 30.31 in 10.0 mi North 6.9 mph - N/A   Clear
6:36 AM 34.3 °F 28.4 °F 25.7 °F 71% 30.31 in 10.0 mi North 6.9 mph - N/A   Clear
6:41 AM 34.7 °F 29.6 °F 25.7 °F 70% 30.31 in 10.0 mi North 5.8 mph - N/A   Clear
6:53 AM 35.6 °F 29.9 °F 26.6 °F 70% 30.32 in 10.0 mi NNW 6.9 mph - N/A   Clear
7:53 AM 39.2 °F 32.0 °F 26.6 °F 61% 30.33 in 10.0 mi North 11.5 mph 17.3 mph N/A   Clear
9:56 AM 46.4 °F 42.4 °F 28.4 °F 50% 30.35 in 10.0 mi NNW 8.1 mph - N/A   Clear
10:52 AM 46.4 °F 41.9 °F 28.4 °F 50% 30.35 in 10.0 mi NW 9.2 mph - N/A   Clear
11:54 AM 50.0 °F - 28.4 °F 43% 30.34 in 10.0 mi NNW 8.1 mph - N/A   Clear
12:46 PM 53.6 °F - 30.2 °F 41% 30.31 in 10.0 mi NW 9.2 mph - N/A   Clear
2:54 PM 57.2 °F - 30.2 °F 36% 30.28 in 10.0 mi NW 9.2 mph - N/A   Clear
3:55 PM 57.2 °F - 28.4 °F 33% 30.29 in 10.0 mi NW 10.4 mph - N/A   Clear
4:55 PM 57.2 °F - 26.6 °F 31% 30.29 in 10.0 mi North 3.5 mph - N/A   Clear
5:54 PM 51.8 °F - 28.4 °F 41% 30.29 in 10.0 mi NW 3.5 mph - N/A   Clear
6:50 PM 48.2 °F - 26.6 °F 43% 30.30 in 10.0 mi Calm Calm - N/A   Clear
7:50 PM 44.6 °F - 28.4 °F 53% 30.31 in 10.0 mi Calm Calm - N/A   Clear
8:52 PM 41.0 °F - 26.6 °F 57% 30.31 in 10.0 mi Calm Calm - N/A   Clear
9:58 PM 39.6 °F - 29.8 °F 68% 30.32 in 10.0 mi Calm Calm - N/A   Clear
10:18 PM 37.6 °F - 30.2 °F 75% 30.33 in 10.0 mi Calm Calm - N/A   Clear
10:38 PM 36.0 °F - 29.7 °F 78% 30.33 in 10.0 mi Calm Calm - N/A   Clear
10:58 PM 35.1 °F - 30.0 °F 82% 30.34 in 10.0 mi Calm Calm - N/A   Clear
11:18 PM 35.6 °F - 29.3 °F 78% 30.34 in 10.0 mi Calm Calm - N/A   Clear
11:38 PM 34.7 °F 31.8 °F 29.1 °F 80% 30.34 in 10.0 mi ESE 3.5 mph - N/A   Clear
11:58 PM 32.7 °F - 29.7 °F 88% 30.34 in 10.0 mi Calm Calm - N/A   Clear